Find Starlink 1338

NORAD ID: 45532 Int'l Des: 2020-025 Owner: SPXS Country: US Constellation: starlink operational
LEOCIRCULAR

現在のビュー

3D地球を読み込み中...

About Starlink 1338

Starlink 1338 (NORAD 45532) is a starlink constellation satellite (v1.0) launched Apr 22, 2020 by SPXS of US. It operates in LEO, CIRCULAR orbit with a mass of 260.00 kg.

Starlink 1338について

説明を読み込み中...

次回通過

Passes for default location (London). Set your location on the main map for personalized predictions.

高度履歴

Loading altitude history...

軌道要素

1 45532U 20025B 26169.67739352 .00045150 00000-0 38705-3 0 9995
2 45532 53.0444 310.6734 0001248 112.2696 247.8453 15.68971357341190
Epoch: Jun 18, 2026 • Age: 10 hours

現在のステータス

高度 380.9 km
速度 7.68 km/s
衛星直下点 -52.94°S, 79.86°W
打ち上げ日 Apr 22, 2020
運用期間 6.1 years
タイプ internet

技術仕様

分類 Payload
質量 260.00 kg
乾燥質量 248.00 kg
総質量 260.00 kg
長さ 0.20 m
直径 2.80 m
スパン 9.00 m
形状 Box + pan
製造者 SPXS
バスタイプ Starlink
フェーズステータス In Orbit
所有者/国 SPXS/US

Most Searched